[[{"header":{"parameterUnit":"m.s-1","parameterCategory":1,"la1":30.2991,"la2":30.254,"lo1":-89.0895,"lo2":-89.0444,"dy":0.0017,"dx":0.0017,"nx":28,"ny":28,"refTime":"2024-09-01T03:00:00:Z","depth":0,"parameterNumber":2,"parameterNumberName":"U-component_of_WINDS"},"data":[0,0,0,0,0,0,0,0,0,0,0,0,0,0,0,0,0,0,0,0,0,0,0,0,0,0,0,0,0,0,0,0,0,0,0,0,0,0,0,0,0,0,0,0,0,0,0,0,0,0,0,0,0,0,0,0,0,0,-3.7379,-3.7378,0,-3.729,-3.7288,-3.7287,-3.7155,-3.7153,-3.7151,-3.7148,-3.7055,-3.7054,-3.7054,0,0,0,0,0,0,0,0,0,0,0,0,0,-3.7435,-3.7435,-3.7379,-3.7378,-3.7377,-3.729,-3.7288,-3.7287,-3.7156,-3.7153,-3.715,-3.7147,-3.7055,-3.7054,-3.7054,0,0,0,0,0,0,0,0,0,0,0,0,0,-3.7385,-3.7435,-3.7379,-3.7301,-3.7293,-3.729,-3.7288,-3.7287,-3.7156,-3.7153,-3.7149,-3.7146,-3.7055,-3.7054,-3.7054,-3.712,0,0,-3.7052,-3.7052,0,0,0,0,0,0,0,0,-3.7388,-3.7383,-3.7313,-3.7306,-3.7297,-3.723,-3.7274,-3.7231,-3.7157,-3.7208,-3.7148,-3.7144,-3.7116,-3.711,-3.7101,-3.7116,-3.7111,-3.7052,-3.7052,-3.7052,-3.7051,0,0,0,0,0,0,0,-3.7392,-3.7386,-3.7344,-3.7313,-3.7303,-3.727,-3.7259,-3.7265,-3.7182,-3.7203,-3.7193,-3.7185,-3.711,-3.7101,-3.7097,-3.711,-3.7052,-3.7052,-3.7051,-3.7051,-3.7174,-3.7177,0,0,0,0,0,0,-3.7407,-3.739,-3.7346,-3.7341,-3.7335,-3.7272,-3.7259,-3.7255,-3.7182,-3.7167,-3.7188,-3.7179,-3.7104,-3.7098,-3.7094,-3.7165,-3.7052,-3.7051,-3.7051,-3.717,-3.7175,-3.7178,0,0,0,0,0,0,-3.7409,-3.7404,-3.735,-3.7363,-3.7353,-3.7274,-3.7271,-3.7255,-3.7246,-3.717,-3.7155,-3.7194,-3.7101,-3.7094,-3.7114,-3.716,-3.7051,-3.705,-3.7166,-3.7172,-3.7177,-3.7309,0,0,0,0,0,0,-3.7411,-3.7406,-3.743,-3.7364,-3.7353,-3.7373,-3.7274,-3.7256,-3.7246,-3.7233,-3.7172,-3.7158,-3.7098,-3.7116,-3.7114,-3.7157,-3.705,-3.7162,-3.7169,-3.7175,-3.7301,-3.7319,-3.7334,0,0,0,0,0,-3.7413,-3.7471,-3.7432,-3.7428,-3.7382,-3.7376,-3.737,-3.7299,-3.725,-3.7273,-3.7225,-3.716,-3.7156,-3.7119,-3.7116,-3.716,-3.7158,-3.7167,-3.7174,-3.7293,-3.7315,-3.7334,0,0,0,0,0,0,-3.7544,-3.7461,-3.7417,-3.7455,-3.7424,-3.7354,-3.7381,-3.7325,-3.7307,-3.7296,-3.7209,-3.7196,-3.7227,-3.7195,-3.7156,-3.7219,-3.7147,-3.7155,-3.7239,-3.7259,-3.7276,-3.7281,-3.705,0,0,0,0,0,-3.7577,-3.7579,-3.7507,-3.7547,-3.7534,-3.7461,-3.7456,-3.7405,-3.7368,-3.7354,-3.7307,-3.7274,-3.7264,-3.726,-3.7248,-3.7296,-3.728,-3.7325,-3.7342,-3.7356,-3.7363,-3.7385,-3.7404,-3.7205,-3.7205,-3.7205,0,0,-3.7645,-3.7601,-3.7607,-3.7573,-3.7542,-3.7546,-3.7451,-3.7459,-3.746,-3.7355,-3.737,-3.7336,-3.7292,-3.7327,-3.734,-3.7301,-3.7415,-3.7366,-3.7378,-3.7377,-3.7395,-3.7414,-3.7431,-3.721,-3.7209,-3.7208,0,0,-3.7772,-3.7739,-3.7768,-3.774,-3.7696,-3.7647,-3.7655,-3.7594,-3.7566,-3.7581,-3.7502,-3.7503,-3.7489,-3.7462,-3.7446,-3.7564,-3.7503,-3.7562,-3.7649,-3.7672,-3.7687,-3.7701,-3.7741,-3.7757,-3.757,-3.757,-3.757,0,-3.7862,-3.7865,-3.7791,-3.7804,-3.7791,-3.7697,-3.7726,-3.7702,-3.7656,-3.7649,-3.7607,-3.7588,-3.7553,-3.7579,-3.7608,-3.7599,-3.7604,-3.7567,-3.7691,-3.7704,-3.7715,-3.7753,-3.7768,-3.7578,-3.7577,-3.7576,-3.7575,0,-3.7977,-3.7981,-3.801,-3.7969,-3.7959,-3.7981,-3.7909,-3.7908,-3.7859,-3.7815,-3.7831,-3.7785,-3.7762,-3.7765,-3.7716,-3.7784,-3.7761,-3.7707,-3.7632,-3.7743,-3.7776,-3.779,-3.7588,-3.7585,-3.7583,-3.7581,0,0,-3.8181,-3.8099,-3.8111,-3.8091,-3.8036,-3.8037,-3.8054,-3.8032,-3.8032,-3.8004,-3.8015,-3.8007,-3.7956,-3.7939,-3.7886,-3.7907,-3.8001,-3.7849,-3.7847,-3.7878,-3.8071,-3.8111,-3.8129,-3.7962,-3.7964,-3.7966,-3.8074,0,-3.8295,-3.8319,-3.8254,-3.8295,-3.8296,-3.8208,-3.8223,-3.8191,-3.815,-3.8145,-3.81,-3.8095,-3.8029,-3.8018,-3.8034,-3.7986,-3.8039,-3.7978,-3.7969,-3.797,-3.7981,-3.8147,-3.8189,-3.8294,-3.8087,-3.809,-3.8091,0,-3.843,-3.841,-3.8451,-3.8394,-3.8392,-3.8407,-3.8381,-3.8378,-3.8339,-3.8308,-3.829,-3.8229,-3.8241,-3.8172,-3.8186,-3.8146,-3.8139,-3.8116,-3.8118,-3.8113,-3.8036,-3.8145,-3.8326,-3.8341,-3.8111,-3.811,-3.8108,0,-3.8573,-3.8556,-3.8578,-3.8564,-3.8498,-3.851,-3.8483,-3.8441,-3.8432,-3.841,-3.8403,-3.8382,-3.8371,-3.8356,-3.8291,-3.8247,-3.8313,-3.8238,-3.8286,-3.8288,-3.8302,-3.8302,-3.8483,-3.8302,-3.8301,-3.8301,-3.8301,0,-3.8705,-3.8734,-3.8641,-3.8655,-3.8684,-3.8608,-3.8639,-3.8603,-3.8567,-3.8571,-3.8495,-3.85,-3.8415,-3.8412,-3.8361,-3.838,-3.8376,-3.835,-3.8336,-3.8356,-3.8359,-3.8349,-3.8339,-3.8305,-3.8304,-3.8304,-3.8303,0,-3.8868,-3.8808,-3.8826,-3.8763,-3.8747,-3.8771,-3.8717,-3.8726,-3.8682,-3.8688,-3.8686,-3.8615,-3.8607,-3.8541,-3.8518,-3.8484,-3.8521,-3.8494,-3.8535,-3.8525,-3.8576,-3.8572,-3.8755,-3.8775,-3.8583,-3.8585,-3.8587,0,-3.8956,-3.8976,-3.8915,-3.8913,-3.889,-3.8887,-3.8878,-3.8805,-3.8798,-3.8757,-3.8771,-3.8757,-3.8741,-3.8732,-3.8678,-3.8659,-3.863,-3.8696,-3.8626,-3.8646,-3.8629,-3.8628,-3.8629,-3.871,-3.8712,-3.8714,-3.8716,0,-3.9118,-3.9087,-3.9076,-3.9056,-3.9048,-3.9028,-3.9003,-3.9006,-3.8925,-3.8922,-3.8913,-3.8901,-3.8878,-3.8864,-3.8836,-3.8807,-3.8748,-3.8738,-3.8748,-3.8768,-3.879,-3.8777,-3.8573,-3.8734,-3.8732,-3.8731,-3.873,-3.8729,-3.9244,-3.9257,-3.9217,-3.9208,-3.9182,-3.9161,-3.9167,-3.9124,-3.9115,-3.9091,-3.9049,-3.9046,-3.9007,-3.8964,-3.894,-3.8936,-3.8901,-3.8916,-3.8919,-3.8923,-3.8933,-3.8793,-3.8931,-3.893,-3.8929,-3.8929,-3.8929,0,-3.94,-3.937,-3.9363,-3.9332,-3.9325,-3.9271,-3.9242,-3.9239,-3.9238,-3.9207,-3.9193,-3.9183,-3.9169,-3.9115,-3.9096,-3.9103,-3.9075,-3.91,-3.9098,-3.9092,-3.8966,-3.8959,-3.9123,-3.9123,-3.9123,-3.9123,-3.9123,-3.9123,-3.948,-3.95,-3.9465,-3.9471,-3.944,-3.9437,-3.9425,-3.9405,-3.9379,-3.9372,-3.936,-3.9326,-3.9285,-3.9262,-3.9247,-3.9231,-3.9227,-3.9261,-3.9236,-3.9119,-3.9101,-3.9083,-3.9075,-3.9261,-3.9261,-3.9361,-3.9362,-3.9363]},{"header":{"parameterUnit":"m.s-1","parameterCategory":1,"la1":30.2991,"la2":30.254,"lo1":-89.0895,"lo2":-89.0444,"dy":0.0017,"dx":0.0017,"nx":28,"ny":28,"refTime":"2024-09-01T03:00:00:Z","depth":0,"parameterNumber":3,"parameterNumberName":"V-component_of_WINDS"},"data":[0,0,0,0,0,0,0,0,0,0,0,0,0,0,0,0,0,0,0,0,0,0,0,0,0,0,0,0,0,0,0,0,0,0,0,0,0,0,0,0,0,0,0,0,0,0,0,0,0,0,0,0,0,0,0,0,0,0,0.7534,0.7535,0,0.7539,0.7539,0.7539,0.7571,0.7572,0.7573,0.7573,0.7574,0.7573,0.7572,0,0,0,0,0,0,0,0,0,0,0,0,0,0.755,0.755,0.7534,0.7535,0.7535,0.7539,0.7539,0.7539,0.7571,0.7572,0.7573,0.7574,0.7574,0.7573,0.7572,0,0,0,0,0,0,0,0,0,0,0,0,0,0.7548,0.7549,0.7534,0.7551,0.7553,0.7539,0.7539,0.7539,0.7571,0.7572,0.7573,0.7574,0.7574,0.7573,0.7572,0.7542,0,0,0.7569,0.7568,0,0,0,0,0,0,0,0,0.7548,0.7547,0.7549,0.755,0.7552,0.7556,0.7545,0.754,0.757,0.7564,0.7573,0.7575,0.7567,0.7566,0.7564,0.7542,0.7542,0.7569,0.7568,0.7568,0.7567,0,0,0,0,0,0,0,0.7548,0.7547,0.7536,0.7549,0.755,0.7557,0.7558,0.7544,0.7558,0.7564,0.7567,0.7567,0.7568,0.7565,0.7565,0.7542,0.7569,0.7568,0.7567,0.7567,0.7494,0.7492,0,0,0,0,0,0,0.7546,0.7547,0.7536,0.7536,0.7553,0.7556,0.7557,0.7553,0.7559,0.7561,0.7566,0.7569,0.7567,0.7566,0.7565,0.7529,0.7568,0.7567,0.7566,0.7495,0.7493,0.7492,0,0,0,0,0,0,0.7546,0.7545,0.7536,0.7542,0.7542,0.7554,0.755,0.7553,0.755,0.756,0.7562,0.7561,0.7568,0.7566,0.7547,0.7529,0.7566,0.7565,0.7496,0.7494,0.7493,0.7456,0,0,0,0,0,0,0.7547,0.7545,0.7534,0.7542,0.7541,0.7519,0.7549,0.7552,0.7549,0.7552,0.7556,0.7558,0.7568,0.7549,0.7546,0.7528,0.7564,0.7498,0.7496,0.7493,0.7459,0.7453,0.7448,0,0,0,0,0,0.7547,0.7523,0.7533,0.7532,0.7528,0.7518,0.7518,0.7532,0.7547,0.7536,0.7542,0.7558,0.7532,0.7547,0.7544,0.7525,0.7499,0.7496,0.7493,0.7461,0.7454,0.7448,0,0,0,0,0,0,0.7511,0.7524,0.7536,0.7514,0.7515,0.7524,0.751,0.7524,0.7519,0.7522,0.7539,0.7539,0.7517,0.752,0.7536,0.7496,0.7518,0.7515,0.7495,0.7488,0.7483,0.7482,0.7563,0,0,0,0,0,0.7501,0.7493,0.7504,0.7483,0.7484,0.7497,0.7493,0.7504,0.7505,0.7505,0.751,0.7509,0.7501,0.7495,0.7488,0.746,0.7461,0.7446,0.7441,0.7436,0.7432,0.7417,0.741,0.7482,0.7482,0.7482,0,0,0.7479,0.7485,0.7479,0.7476,0.7478,0.7468,0.7497,0.7485,0.7477,0.7503,0.7485,0.7489,0.7489,0.7465,0.7455,0.7467,0.7413,0.7433,0.7429,0.7427,0.7413,0.7406,0.74,0.748,0.7481,0.7481,0,0,0.7434,0.7438,0.7421,0.7423,0.7426,0.7435,0.7431,0.7438,0.7442,0.7425,0.7444,0.7434,0.742,0.742,0.7417,0.7373,0.7386,0.737,0.7341,0.7326,0.732,0.7315,0.7297,0.7291,0.7366,0.7366,0.7366,0,0.7405,0.7392,0.741,0.7397,0.7395,0.742,0.7402,0.7402,0.7402,0.74,0.7413,0.7396,0.7398,0.7374,0.7363,0.7361,0.7356,0.7369,0.732,0.7315,0.731,0.7294,0.7287,0.7364,0.7365,0.7365,0.7365,0,0.7357,0.7347,0.7333,0.7334,0.7331,0.7315,0.7329,0.7324,0.7335,0.7342,0.7324,0.7328,0.7322,0.7317,0.7328,0.7295,0.7302,0.7317,0.734,0.7301,0.7286,0.728,0.7361,0.7362,0.7363,0.7363,0,0,0.7287,0.7299,0.7293,0.7294,0.73,0.7292,0.7278,0.7273,0.7267,0.7267,0.7254,0.7242,0.7257,0.7254,0.7265,0.7252,0.7215,0.7269,0.7269,0.7257,0.7177,0.7164,0.7156,0.7225,0.7223,0.7223,0.7176,0,0.7243,0.7219,0.7235,0.7209,0.72,0.7223,0.721,0.7212,0.7219,0.7211,0.7218,0.7208,0.7229,0.7228,0.7216,0.7222,0.7198,0.7226,0.7211,0.721,0.7208,0.7148,0.7135,0.709,0.717,0.7169,0.7169,0,0.7187,0.7186,0.7158,0.7166,0.7163,0.7151,0.7148,0.7141,0.7143,0.7149,0.7146,0.7161,0.7146,0.717,0.7148,0.7166,0.7162,0.7164,0.7162,0.716,0.7186,0.7143,0.7077,0.7069,0.716,0.716,0.7161,0,0.7137,0.7128,0.7111,0.7111,0.712,0.7111,0.7114,0.7117,0.7114,0.7111,0.7108,0.7103,0.71,0.7095,0.7107,0.7124,0.7084,0.7109,0.7086,0.7086,0.7075,0.7075,0.7006,0.7075,0.7075,0.7075,0.7075,0,0.7085,0.7067,0.7089,0.7078,0.7058,0.7076,0.7056,0.7062,0.7064,0.7054,0.7074,0.7064,0.7081,0.7072,0.7081,0.7061,0.706,0.7063,0.7065,0.706,0.706,0.7056,0.7058,0.7073,0.7074,0.7074,0.7074,0,0.7025,0.7039,0.7021,0.7032,0.7034,0.7019,0.7027,0.7017,0.7025,0.7012,0.701,0.7022,0.7013,0.7025,0.7016,0.7022,0.6995,0.7003,0.6994,0.6996,0.6972,0.6973,0.6896,0.6886,0.6963,0.6963,0.6962,0,0.6989,0.6976,0.6986,0.6981,0.6983,0.6975,0.6972,0.6989,0.6984,0.6986,0.6975,0.6968,0.6962,0.6945,0.6953,0.6946,0.6953,0.6926,0.6952,0.6947,0.695,0.695,0.6948,0.692,0.6919,0.6919,0.6918,0,0.6925,0.6932,0.6927,0.6925,0.692,0.6919,0.6919,0.6913,0.6932,0.6925,0.6916,0.6912,0.6904,0.6896,0.6891,0.6893,0.6907,0.691,0.6904,0.6898,0.6893,0.6894,0.6978,0.6911,0.6912,0.6913,0.6913,0.6913,0.6875,0.6864,0.6869,0.6862,0.6865,0.6864,0.6855,0.6863,0.6856,0.6851,0.6862,0.685,0.6852,0.6848,0.6848,0.6838,0.6849,0.6841,0.6839,0.6836,0.6832,0.6896,0.6838,0.6838,0.6838,0.6838,0.6838,0,0.681,0.6814,0.6808,0.6808,0.6803,0.682,0.682,0.6814,0.6804,0.6805,0.68,0.679,0.6782,0.6789,0.6782,0.6773,0.6779,0.677,0.677,0.677,0.6823,0.6828,0.6765,0.6765,0.6765,0.6765,0.6765,0.6765,0.6775,0.6757,0.6766,0.6749,0.6754,0.6743,0.6742,0.6741,0.6743,0.673,0.6724,0.673,0.6733,0.6727,0.672,0.6722,0.6718,0.6706,0.671,0.6759,0.6766,0.6773,0.6778,0.6706,0.6705,0.6658,0.6658,0.6657]}]]